Apstar 9

operational
NORAD ID: 40982 Int'l Des: 2015-059 Owner: APT Country: HK
HEOCIRCULARGSOGEO

About Apstar 9

Description loading...

Live Position

Loading 3D Globe...

Upcoming Passes

Altitude History

Altitude vs Time

uPlot chart will show altitude changes over time

Two-Line Element Set

1 40982U 15059A 25340.88288140 -.00000260 00000-0 00000-0 0 9995
2 40982 0.0402 58.7265 0004095 168.7744 308.2655 1.00269895 37198
Epoch: Dec 6, 2025 • Age: 9 hours

Current Status

Altitude 35786.6 km
Velocity 3.07 km/s
Sub-Earth Point -0.04°S, 142.06°E
Launch Date Oct 16, 2015
Age 10.1 years
Type other

Technical Details

Classification Payload
Mass 5000.00 kg
Dry Mass 2500.00 kg
Total Mass 5000.00 kg
Length 5.00 m
Diameter 2.50 m
Span 30.00 m
Shape Box+ 2 pan
Manufacturer CAST
Bus Type DFH-4
Phase Status In Orbit
Owner/State APT/HK

Large Constellations

Loading constellations...